Location: George Washington National Forest Helicopter Landing Site
(38.6463°N, 79.0851°W)
Time: 04:33:04
(UTC-04:00)

Tiros 1 - Pass Details

Date: 02 September 2019
Orbit: 630 x 664 km, 48.4° (Epoch: 16 October)

Event Time Altitude Azimuth Distance (km) Brightness Sun altitude
Rises 20:47:18 0° 238° (WSW) 2,915 11.1 -12.5°
Reaches altitude 10° 20:49:37 10° 239° (WSW) 2,005 10.2 -12.9°
Maximum altitude 20:54:14 83° 326° (NNW) 638 7.1 -13.8°
Drops below altitude 10° 20:58:51 10° 56° (NE) 2,005 9.4 -14.6°
Enters shadow 20:59:29 - 56° (ENE) 2,249 9.6 -14.7°
